Flag for Malaysia Weather past 2 weeks in Kuching, Malaysia

82 °F

Partly cloudy.

Feels Like: 92 °F
Forecast: 79 / 88 °F
Wind: 3 mph from Northeast

Location: Kuching Airport

Current Time: Oct 10, 2015 at 7:55:37 PM

Latest Report: Oct 10, 2015 at 7:30 PM

Visibility: 1 mi

Pressure: 29.89 "Hg

Humidity: 89%

Dew point: 79 °F

Location of KuchingLocation

Historic Weather in Kuching — Graph


Kuching temperature yesterday

Maximum temperature yesterday: 91 °F (at 1:30 PM)
Minimum temperature yesterday: 75 °F (at 1:00 AM)
Average temperature yesterday: 81 °F

Past Weeks' High & Low Weather Summary

High93 °F (Oct 8, 1:30 PM)100% (Sep 26, 1:30 AM)29.98 "Hg (Sep 26, 1:30 AM)
Low73 °F (Sep 30, 1:30 AM)52% (Sep 30, 1:00 PM)29.71 "Hg (Sep 26, 2:30 PM)
Average81 °F85%29.86 "Hg
* Reported Sep 25 6:00 PM — Oct 10 6:30 PM, Kuching, Weather by CustomWeather, © 2015

Note: Actual official high and low records may vary slightly from our data, if they occured in-between our weather recording intervals... More about our weather records


Kuching weather history for previous 24 hours

Time TempWeatherWind HumidityBarometerVisibility
6:30 PM
Sat, Oct 10
84 °FPartly cloudy.5 mph79%29.83 "Hg1 mi
6:00 PM84 °FBroken clouds.8 mph79%29.83 "Hg1 mi
5:30 PM84 °FBroken clouds.8 mph79%29.83 "Hg1 mi
5:00 PM86 °FBroken clouds.7 mph70%29.83 "Hg1 mi
4:30 PM88 °FBroken clouds.7 mph66%29.83 "Hg1 mi
4:00 PM88 °FBroken clouds.6 mph70%29.83 "Hg1 mi
3:30 PM90 °FBroken clouds.3 mph63%29.83 "Hg1 mi
3:00 PM90 °FBroken clouds.3 mph63%29.83 "Hg1 mi
2:30 PM90 °FBroken clouds.3 mph63%29.83 "Hg1 mi
2:00 PM91 °FBroken clouds.3 mph63%29.83 "Hg1 mi
1:30 PM88 °FBroken clouds.5 mph70%29.86 "Hg1 mi
1:00 PM88 °FBroken clouds.3 mph70%29.89 "Hg1 mi
12:30 PM88 °FBroken clouds.3 mph70%29.89 "Hg1 mi
12:00 PM88 °FBroken clouds.3 mph70%29.92 "Hg1 mi
11:30 AM86 °FPartly sunny.5 mph70%29.92 "Hg1 mi
11:00 AM86 °FPartly sunny.3 mph75%29.92 "Hg2 mi
10:30 AM84 °FPartly sunny.2 mph79%29.92 "Hg2 mi
10:00 AM82 °FPartly sunny.5 mph84%29.92 "Hg2 mi
9:30 AM81 °FPartly sunny.3 mph84%29.92 "Hg2 mi
9:00 AM81 °FPartly sunny.3 mph84%29.92 "Hg2 mi
8:30 AM81 °FPartly sunny.3 mph79%29.92 "Hg2 mi
8:00 AM79 °FPartly sunny.7 mph84%29.92 "Hg2 mi
7:30 AM79 °FBroken clouds.3 mph84%29.92 "Hg2 mi
7:00 AM77 °FBroken clouds.3 mph89%29.89 "Hg2 mi
6:30 AM77 °FPartly sunny.5 mph89%29.89 "Hg2 mi
6:00 AM77 °FPartly cloudy.5 mph89%29.86 "Hg2 mi
5:00 AM77 °FPartly cloudy.3 mph89%29.86 "Hg2 mi
4:30 AM77 °FPartly cloudy.3 mph83%29.86 "Hg2 mi
4:00 AM77 °FPassing clouds.6 mph83%29.83 "Hg4 mi
3:30 AM77 °FPassing clouds.6 mph83%29.86 "Hg4 mi
3:00 AM77 °FPartly cloudy.5 mph83%29.83 "Hg4 mi
2:30 AM77 °FPartly cloudy.5 mph83%29.83 "Hg5 mi
2:00 AM77 °FPartly cloudy.5 mph83%29.86 "Hg5 mi
1:30 AM77 °FPartly cloudy.3 mph89%29.86 "Hg5 mi
1:00 AM77 °FPartly cloudy.5 mph89%29.86 "Hg5 mi
12:30 AM77 °FPartly cloudy.5 mph89%29.89 "Hg5 mi
12:00 AM77 °FPartly cloudy.3 mph89%29.89 "Hg4 mi
11:30 PM
Fri, Oct 9
77 °FPartly cloudy.6 mph89%29.89 "Hg4 mi
10:30 PM77 °FPartly cloudy.3 mph89%29.86 "Hg4 mi
10:00 PM77 °FPartly cloudy.3 mph89%29.86 "Hg4 mi
9:30 PM77 °FPartly cloudy.6 mph89%29.86 "Hg4 mi
9:00 PM77 °FPartly cloudy.5 mph89%29.86 "Hg3 mi
8:30 PM79 °FPartly cloudy.2 mph84%29.83 "Hg3 mi
8:00 PM79 °FPartly cloudy.5 mph84%29.83 "Hg3 mi
7:30 PM79 °FPartly cloudy.8 mph84%29.83 "Hg3 mi
7:00 PM81 °FPartly cloudy.7 mph79%29.80 "Hg2 mi
Weather by CustomWeather, © 2015

See weather overviewHow to use our weather pages